TimeEDT,TemperatureF,Dew PointF,Humidity,Sea Level PressureIn,VisibilityMPH,Wind Direction,Wind SpeedMPH,Gust SpeedMPH,PrecipitationIn,Events,Conditions,WindDirDegrees,DateUTC
12:56 AM,55.0,48.9,80,30.07,10.0,North,6.9,-,N/A,,Clear,360,2012-09-24 04:56:00
1:56 AM,55.9,48.9,77,30.07,10.0,North,8.1,-,N/A,,Clear,350,2012-09-24 05:56:00
2:56 AM,55.0,46.0,72,30.07,10.0,North,9.2,-,N/A,,Partly Cloudy,360,2012-09-24 06:56:00
3:56 AM,53.1,45.0,74,30.06,10.0,North,4.6,-,N/A,,Clear,350,2012-09-24 07:56:00
4:56 AM,53.1,45.0,74,30.08,10.0,NNW,5.8,-,N/A,,Clear,340,2012-09-24 08:56:00
5:56 AM,51.1,44.1,77,30.08,10.0,NNW,3.5,-,N/A,,Clear,330,2012-09-24 09:56:00
6:56 AM,52.0,45.0,77,30.09,10.0,NW,4.6,-,N/A,,Clear,320,2012-09-24 10:56:00
7:56 AM,55.9,46.9,72,30.10,10.0,NNW,5.8,-,N/A,,Clear,330,2012-09-24 11:56:00
8:56 AM,59.0,46.9,64,30.11,10.0,North,9.2,-,N/A,,Clear,10,2012-09-24 12:56:00
9:56 AM,61.0,48.0,62,30.11,10.0,NNE,9.2,-,N/A,,Clear,20,2012-09-24 13:56:00
10:56 AM,62.1,46.9,58,30.11,10.0,Variable,6.9,-,N/A,,Clear,0,2012-09-24 14:56:00
11:56 AM,63.0,46.0,54,30.10,10.0,North,10.4,-,N/A,,Clear,360,2012-09-24 15:56:00
12:56 PM,64.0,45.0,50,30.09,10.0,NNE,10.4,-,N/A,,Clear,20,2012-09-24 16:56:00
1:56 PM,64.9,44.1,47,30.07,10.0,Variable,5.8,-,N/A,,Scattered Clouds,0,2012-09-24 17:56:00
2:56 PM,63.0,45.0,52,30.06,10.0,NW,4.6,-,N/A,,Scattered Clouds,320,2012-09-24 18:56:00
3:56 PM,64.0,41.0,43,30.06,10.0,NW,8.1,-,N/A,,Clear,310,2012-09-24 19:56:00
4:56 PM,64.0,41.0,43,30.07,10.0,West,8.1,-,N/A,,Clear,270,2012-09-24 20:56:00
5:56 PM,62.1,45.0,53,30.06,10.0,WSW,8.1,-,N/A,,Partly Cloudy,250,2012-09-24 21:56:00
6:56 PM,57.9,46.0,65,30.07,10.0,West,4.6,-,N/A,,Clear,260,2012-09-24 22:56:00
7:56 PM,51.1,46.9,86,30.09,10.0,Calm,Calm,-,N/A,,Clear,0,2012-09-24 23:56:00
8:56 PM,48.0,45.0,89,30.10,10.0,Calm,Calm,-,N/A,,Clear,0,2012-09-25 00:56:00
9:56 PM,46.9,45.0,93,30.11,10.0,Calm,Calm,-,N/A,,Clear,0,2012-09-25 01:56:00
10:56 PM,46.0,44.1,93,30.12,10.0,Calm,Calm,-,N/A,,Clear,0,2012-09-25 02:56:00
11:56 PM,45.0,43.0,93,30.13,10.0,Calm,Calm,-,N/A,,Clear,0,2012-09-25 03:56:00